Le nostre stazioni meteo in Italia

Pubblicità
Il mio iltempo24.it
Katesbridge, Gran Bretagna (99014): Temperatura & dewpoint: 04.04.2020 04:00:00 - 10.04.2020 04:00:00 (BST)Katesbridge, Gran Bretagna (99014): velocità del vento & gusts: 04.04.2020 04:00:00 - 10.04.2020 04:00:00 (BST)Katesbridge, Gran Bretagna (99014): direzione del vento: 04.04.2020 04:00:00 - 10.04.2020 04:00:00 (BST)Katesbridge, Gran Bretagna (99014): ore di luce: 04.04.2020 04:00:00 - 10.04.2020 04:00:00 (BST)Katesbridge, Gran Bretagna (99014): precipitazioni: 04.04.2020 04:00:00 - 10.04.2020 04:00:00 (BST)
Data & Tempo tt [°C] td [°C] ff [km/h] ff [kn] fx [km/h] fx [kn] dd sd [min] rr [mm]
10.04.2020 04:00:00 9,5 8,2 13 7 - - ESE 0 -
10.04.2020 03:00:00 9,5 8,1 13 7 - - ESE 0 0,0
10.04.2020 02:00:00 9,7 8,0 13 7 - - ESE 0 0,0
10.04.2020 01:00:00 10,4 8,3 15 8 - - ESE - 0,0
10.04.2020 00:00:00 11,0 8,3 16 9 - - E 0 0,0
09.04.2020 23:00:00 10,8 8,2 13 7 - - ESE 0 0,0
09.04.2020 22:00:00 10,2 7,8 4 2 - - SE 0 0,0
09.04.2020 21:00:00 11,0 7,9 5 3 - - ESE 0 0,0
09.04.2020 20:00:00 11,6 8,2 15 8 - - ESE 0 0,0
09.04.2020 19:00:00 12,4 8,3 15 8 - - SE 0 0,0
09.04.2020 18:00:00 13,1 7,9 18 10 - - ESE 12 0,0
09.04.2020 17:00:00 13,3 7,5 21 11 - - ESE 54 0,0
09.04.2020 16:00:00 13,5 7,7 22 12 - - SE 18 0,0
09.04.2020 15:00:00 13,8 7,2 18 10 - - ESE 60 0,0
09.04.2020 14:00:00 13,4 6,6 22 12 - - SE 60 0,0
09.04.2020 13:00:00 14,0 7,7 16 9 - - ESE 60 0,0
09.04.2020 12:00:00 13,4 7,3 15 8 - - ESE 54 0,0
09.04.2020 11:00:00 13,0 7,2 16 9 - - SE 60 0,0
09.04.2020 10:00:00 12,3 7,7 11 6 - - ESE 54 0,0
09.04.2020 09:00:00 10,2 7,2 11 6 - - ESE 60 0,0
09.04.2020 08:00:00 5,8 5,8 5 3 - - SE 24 0,0
09.04.2020 07:00:00 2,7 2,6 4 2 - - SE 0 0,0
09.04.2020 06:00:00 2,8 2,5 2 1 - - ENE 0 0,0
09.04.2020 05:00:00 3,3 3,1 0 0 - - N 0 0,0
09.04.2020 04:00:00 3,3 2,2 0 0 - - N 0 0,0
09.04.2020 03:00:00 5,7 4,5 2 1 - - NE 0 0,0
09.04.2020 02:00:00 9,1 7,2 2 1 - - S 0 0,0
09.04.2020 01:00:00 10,2 8,3 4 2 - - SE - 0,0
09.04.2020 00:00:00 10,5 8,0 2 1 - - E 0 0,0
08.04.2020 23:00:00 10,9 8,0 0 0 - - N 0 0,0
08.04.2020 22:00:00 11,7 8,0 4 2 - - ONO 0 0,0
08.04.2020 21:00:00 12,6 7,4 4 2 - - NNE 0 0,0
08.04.2020 20:00:00 13,7 7,7 4 2 - - O 0 0,0
08.04.2020 19:00:00 14,7 6,9 5 3 - - O 0 0,0
08.04.2020 18:00:00 15,8 6,8 9 5 - - OSO 48 0,0
08.04.2020 17:00:00 17,0 6,3 9 5 - - OSO 60 0,0
08.04.2020 16:00:00 17,0 6,5 11 6 - - O 60 0,0
08.04.2020 15:00:00 16,2 6,7 11 6 - - OSO 60 0,0
08.04.2020 14:00:00 15,6 5,8 11 6 - - SO 60 0,0
08.04.2020 13:00:00 15,1 5,4 13 7 - - OSO 60 0,0
08.04.2020 12:00:00 13,6 4,7 13 7 - - SO 60 0,0
08.04.2020 11:00:00 12,8 5,1 11 6 - - SO 60 0,0
08.04.2020 10:00:00 10,6 5,1 11 6 - - SO 60 0,0
08.04.2020 09:00:00 9,0 5,1 4 2 - - SSE 60 0,0
08.04.2020 08:00:00 4,1 3,8 2 1 - - E 24 0,0
08.04.2020 07:00:00 2,0 1,1 4 2 - - ENE 0 0,0
08.04.2020 06:00:00 3,5 2,5 2 1 - - S 0 0,0
08.04.2020 05:00:00 5,1 3,3 5 3 - - SSO 0 0,0
08.04.2020 04:00:00 4,9 4,4 5 3 - - S 0 0,0
08.04.2020 03:00:00 3,8 3,1 4 2 - - SSE 0 0,0
08.04.2020 02:00:00 3,3 2,3 4 2 - - SSE 0 0,0
08.04.2020 01:00:00 4,5 1,9 4 2 - - SSE - 0,0
08.04.2020 00:00:00 7,1 3,2 4 2 - - SSO 0 0,0
07.04.2020 23:00:00 6,3 2,4 5 3 - - SE 0 0,0
07.04.2020 22:00:00 8,5 3,8 8 4 - - SSO 0 0,0
07.04.2020 21:00:00 6,6 3,9 4 2 - - SSE 0 0,0
07.04.2020 20:00:00 7,1 3,1 8 4 - - E 6 0,0
07.04.2020 19:00:00 10,0 4,4 11 6 - - S 60 0,0
07.04.2020 18:00:00 11,3 4,0 21 11 - - S 60 0,0
07.04.2020 17:00:00 12,2 4,0 21 11 - - S 60 0,0
07.04.2020 16:00:00 12,5 3,5 22 12 - - SSO 60 0,0
07.04.2020 15:00:00 13,3 3,6 21 11 - - S 60 0,0
07.04.2020 14:00:00 13,1 3,6 22 12 - - SSO 60 0,0
07.04.2020 13:00:00 12,3 2,6 24 13 - - SSO 60 0,0
07.04.2020 12:00:00 11,8 5,4 18 10 - - S 60 0,0
07.04.2020 11:00:00 11,5 5,1 18 10 - - S 60 0,0
07.04.2020 10:00:00 9,9 4,0 16 9 - - S 60 0,0
07.04.2020 09:00:00 6,8 6,8 5 3 - - SE 48 0,0
07.04.2020 08:00:00 -1,1 -1,1 4 2 - - ESE 0 0,0
07.04.2020 07:00:00 -2,0 -2,1 2 1 - - SE 0 0,0
07.04.2020 06:00:00 -2,3 -2,5 2 1 - - NE 0 0,0
07.04.2020 05:00:00 -1,7 -1,8 2 1 - - E 0 0,0
07.04.2020 04:00:00 -1,9 -2,1 2 1 - - NE 0 0,0
07.04.2020 03:00:00 -1,2 -1,3 2 1 - - ENE 0 0,0
07.04.2020 02:00:00 0,2 0,1 2 1 - - ESE 0 0,0
07.04.2020 01:00:00 -0,8 -1,1 2 1 - - NNE - 0,0
07.04.2020 00:00:00 -1,4 -2,1 2 1 - - NO 0 0,0
06.04.2020 23:00:00 0,2 -0,6 2 1 - - ENE 0 0,0
06.04.2020 22:00:00 1,1 -0,1 2 1 - - N 0 0,0
06.04.2020 21:00:00 4,0 1,5 2 1 - - SE 0 0,0
06.04.2020 20:00:00 8,3 3,5 4 2 - - NO 36 0,0
06.04.2020 19:00:00 10,6 3,6 9 5 - - O 54 0,0
06.04.2020 18:00:00 11,0 3,5 18 10 - - OSO 42 0,0
06.04.2020 17:00:00 11,0 6,8 8 4 48 26 ONO 24 0,6
06.04.2020 16:00:00 12,4 2,1 21 11 48 26 OSO 36 0,0
06.04.2020 15:00:00 13,0 1,1 22 12 - - OSO 54 0,0
06.04.2020 14:00:00 12,4 4,6 11 6 - - ONO 54 0,0
06.04.2020 13:00:00 12,0 3,6 18 10 - - O 54 0,0
06.04.2020 12:00:00 10,9 4,4 21 11 - - O 12 0,0
06.04.2020 11:00:00 10,2 5,2 21 11 - - O 30 0,0
06.04.2020 10:00:00 9,2 5,0 18 10 - - OSO 54 0,0
06.04.2020 09:00:00 7,9 4,5 18 10 - - OSO 36 0,0
06.04.2020 08:00:00 7,4 4,6 13 7 - - SO 0 0,0
06.04.2020 07:00:00 7,4 4,3 18 10 - - OSO 0 0,0
06.04.2020 06:00:00 7,5 4,7 18 10 - - OSO 0 0,0
06.04.2020 05:00:00 8,3 6,1 15 8 - - OSO 0 0,0
06.04.2020 04:00:00 8,8 6,5 24 13 - - SO 0 0,0
06.04.2020 03:00:00 9,5 6,3 26 14 46 25 SO 0 0,0
06.04.2020 02:00:00 9,8 7,7 16 9 - - SO 0 0,0
06.04.2020 01:00:00 10,5 8,4 22 12 - - SO - 0,4
06.04.2020 00:00:00 10,3 9,8 28 15 52 28 S 0 0,0
05.04.2020 23:00:00 10,5 9,9 29 16 59 32 S 0 0,4
05.04.2020 22:00:00 10,7 10,1 39 21 78 42 S 0 0,2
05.04.2020 21:00:00 10,9 10,1 37 20 87 47 S 0 1,0
05.04.2020 20:00:00 11,6 9,6 46 25 78 42 S 0 0,0
05.04.2020 19:00:00 12,2 9,7 41 22 68 37 S 0 0,0
05.04.2020 18:00:00 12,0 9,4 37 20 72 39 S 0 0,0
05.04.2020 17:00:00 12,6 8,2 41 22 70 38 S 0 0,0
05.04.2020 16:00:00 12,6 7,3 35 19 68 37 S 6 0,0
05.04.2020 15:00:00 13,0 7,4 35 19 72 39 S 18 0,0
05.04.2020 14:00:00 14,0 6,6 34 18 57 31 S 48 0,0
05.04.2020 13:00:00 12,8 5,0 29 16 57 31 SSE 0 0,0
05.04.2020 12:00:00 12,3 4,6 31 17 57 31 SSE 0 0,0
05.04.2020 11:00:00 11,8 5,0 28 15 52 28 SSE 0 0,0
05.04.2020 10:00:00 11,1 4,8 28 15 46 25 SSE 0 0,0
05.04.2020 09:00:00 10,2 4,8 22 12 - - SSE 0 0,0
05.04.2020 08:00:00 9,9 4,7 26 14 46 25 SSE 0 0,0
05.04.2020 07:00:00 9,5 4,6 22 12 - - S 0 0,0
05.04.2020 06:00:00 9,2 4,5 24 13 - - S 0 0,0
05.04.2020 05:00:00 8,3 4,4 18 10 - - SSE 0 0,0
05.04.2020 04:00:00 8,4 4,4 22 12 50 27 SSE 0 0,0
05.04.2020 03:00:00 8,8 4,6 24 13 48 26 S 0 0,0
05.04.2020 02:00:00 9,4 5,1 26 14 50 27 S 0 0,0
05.04.2020 01:00:00 9,2 4,5 18 10 - - S - 0,0
05.04.2020 00:00:00 9,3 4,1 18 10 - - S 0 0,0
04.04.2020 23:00:00 8,0 5,5 5 3 - - SSE 0 0,0
04.04.2020 22:00:00 8,4 6,1 11 6 - - S 0 0,0
04.04.2020 21:00:00 8,5 5,8 16 9 - - SSE 0 0,0
04.04.2020 20:00:00 8,7 6,1 21 11 - - S 0 0,0
04.04.2020 19:00:00 9,1 6,4 18 10 - - S 0 0,0
04.04.2020 18:00:00 9,9 5,7 16 9 - - S 6 0,0
04.04.2020 17:00:00 9,6 5,8 22 12 - - S 0 0,0
04.04.2020 16:00:00 9,6 5,3 21 11 - - S 0 0,0
04.04.2020 15:00:00 10,6 5,4 24 13 - - S 0 0,0
04.04.2020 14:00:00 10,7 5,1 21 11 - - S 30 0,0
04.04.2020 13:00:00 9,8 3,7 18 10 - - SSO 6 0,0
04.04.2020 12:00:00 9,0 3,5 21 11 - - SSO 36 0,0
04.04.2020 11:00:00 9,9 4,8 18 10 - - SSO 12 0,0
04.04.2020 10:00:00 8,1 4,2 11 6 - - SSO 18 0,0
04.04.2020 09:00:00 7,3 4,9 11 6 - - SO 0 0,0
04.04.2020 08:00:00 5,3 4,8 4 2 - - ESE 0 0,0
04.04.2020 07:00:00 4,6 3,5 4 2 - - SE 0 0,0
04.04.2020 06:00:00 4,4 3,3 2 1 - - SSE 0 0,0
04.04.2020 05:00:00 4,8 3,5 4 2 - - S 0 0,0
04.04.2020 04:00:00 5,3 4,0 4 2 - - SE 0 0,0

tt = Temperatura
td = dewpoint
ff = velocità del vento
fx = gusts
dd = direzione del vento
sd = ore di luce
rr = precipitazioni

Stazioni seguenti

WeatherPro
AMSI
MeteoEarth